Date String (YYYY-MM-DD hh:mm:ss) UTC,Instrument flags,Ambient pressure (hPa),Sample flow (lpm),Bypass flow (lpm),Sample temperature (°C),Ambient temperature (°C),ASC tube jacket temperature (°C),LED temperature (°C),Box temperature (°C),Sample RH (%),Span deviation,Mass concentration (μg/m³),Mass concentration (μg/m³),Mass concentration (μg/m³)
DateTimeUTC,F1_M11,P_M11,Q1_M11,Q2_M11,T1_M11,T2_M11,T3_M11,T4_M11,T5_M11,U1_M11,ZSPAN_M11,X0_M11,X2_M11,X1_M11
2022-10-13 10:00:00,,0830.6,5.00,0.00,26.6,24.8,00.0,35.4,28.3,15.7,0000.0,0014.84,0005.54,0004.49
2022-10-13 10:01:00,,0830.6,4.98,0.00,26.6,24.8,00.0,35.4,28.4,15.7,0000.0,0014.60,0005.54,0004.49
2022-10-13 10:02:00,,0830.6,5.00,0.00,26.6,24.8,00.0,35.4,28.4,15.8,0000.0,0014.20,0005.53,0004.50
2022-10-13 10:03:00,,0830.6,5.00,0.00,26.5,24.9,00.0,35.4,28.4,15.8,0000.0,0013.35,0005.49,0004.50
2022-10-13 10:04:00,,0830.6,5.01,0.00,26.5,24.8,00.0,35.4,28.4,15.8,0000.0,0013.29,0005.46,0004.50
2022-10-13 10:05:00,,0830.5,5.00,0.00,26.5,24.8,00.0,35.4,28.3,15.8,0000.0,0013.37,0005.46,0004.51
2022-10-13 10:06:00,,0830.6,5.01,0.00,26.5,24.8,00.0,35.4,28.4,15.8,0000.0,0013.30,0005.47,0004.52
2022-10-13 10:07:00,,0830.6,5.00,0.00,26.5,24.8,00.0,35.4,28.4,15.8,0000.0,0012.52,0005.53,0004.52
2022-10-13 10:08:00,,0830.6,5.00,0.00,26.5,24.8,00.0,35.4,28.4,15.8,0000.0,0012.18,0005.53,0004.52
2022-10-13 10:09:00,,0830.6,4.99,0.00,26.5,24.8,00.0,35.4,28.4,15.8,0000.0,0012.82,0005.53,0004.51
2022-10-13 10:10:00,,0830.6,5.00,0.00,26.5,24.8,00.0,35.4,28.4,15.7,0000.0,0013.08,0005.56,0004.51
2022-10-13 10:11:00,,0830.6,5.00,0.00,26.5,24.8,00.0,35.4,28.3,15.7,0000.0,0012.92,0005.57,0004.50
2022-10-13 10:12:00,,0830.6,5.00,0.00,26.5,24.8,00.0,35.4,28.4,15.7,0000.0,0012.22,0005.57,0004.50
2022-10-13 10:13:00,,0830.6,5.00,0.00,26.5,24.8,00.0,35.4,28.4,15.6,0000.0,0013.45,0005.56,0004.49
2022-10-13 10:14:00,,0830.6,5.00,0.00,26.5,24.8,00.0,35.4,28.4,15.6,0000.0,0013.73,0005.53,0004.48
2022-10-13 10:15:00,,0830.5,5.01,0.00,26.5,24.8,00.0,35.4,28.4,15.6,0000.0,0012.99,0005.49,0004.47
2022-10-13 10:16:00,,0830.5,5.00,0.00,26.5,24.8,00.0,35.4,28.4,15.6,0000.0,0013.15,0005.50,0004.46
2022-10-13 10:17:00,,0830.5,5.00,0.00,26.5,24.8,00.0,35.3,28.4,15.5,0000.0,0013.70,0005.48,0004.45
2022-10-13 10:18:00,,0830.5,5.00,0.00,26.5,24.8,00.0,35.3,28.4,15.5,0000.0,0013.42,0005.38,0004.44
2022-10-13 10:19:00,,0830.5,5.00,0.00,26.5,24.8,00.0,35.3,28.3,15.4,0000.0,0013.26,0005.33,0004.42
2022-10-13 10:20:00,,0830.5,5.00,0.00,26.5,24.8,00.0,35.3,28.3,15.4,0000.0,0012.50,0005.31,0004.41
2022-10-13 10:21:00,,0830.5,5.00,0.00,26.5,24.8,00.0,35.3,28.4,15.4,0000.0,0012.85,0005.31,0004.41
2022-10-13 10:22:00,,0830.5,5.00,0.00,26.5,24.8,00.0,35.3,28.3,15.3,0000.0,0013.35,0005.33,0004.39
2022-10-13 10:23:00,,0830.5,5.00,0.00,26.5,24.8,00.0,35.3,28.3,15.3,0000.0,0013.27,0005.32,0004.37
2022-10-13 10:24:00,,0830.5,5.00,0.00,26.5,24.8,00.0,35.3,28.3,15.3,0000.0,0012.09,0005.29,0004.36
2022-10-13 10:25:00,,0830.5,5.00,0.00,26.5,24.8,00.0,35.3,28.3,15.3,0000.0,0012.31,0005.32,0004.37
2022-10-13 10:26:00,,0830.6,5.00,0.00,26.5,24.7,00.0,35.3,28.3,15.3,0000.0,0012.26,0005.31,0004.37
2022-10-13 10:27:00,,0830.5,4.99,0.00,26.4,24.7,00.0,35.3,28.3,15.3,0000.0,0012.11,0005.25,0004.35
2022-10-13 10:28:00,,0830.5,5.00,0.00,26.4,24.7,00.0,35.3,28.3,15.3,0000.0,0012.58,0005.26,0004.35
2022-10-13 10:29:00,,0830.5,5.00,0.00,26.4,24.7,00.0,35.3,28.2,15.3,0000.0,0012.62,0005.27,0004.34
2022-10-13 10:30:00,,0830.6,5.00,0.00,26.4,24.6,00.0,35.3,28.2,15.3,0000.0,0012.66,0005.31,0004.35
2022-10-13 10:31:00,,0830.5,5.00,0.00,26.4,24.6,00.0,35.3,28.2,15.3,0000.0,0012.67,0005.30,0004.34
2022-10-13 10:32:00,,0830.5,5.00,0.00,26.4,24.7,00.0,35.3,28.2,15.3,0000.0,0012.18,0005.24,0004.33
2022-10-13 10:33:00,,0830.5,5.00,0.00,26.4,24.7,00.0,35.3,28.2,15.3,0000.0,0013.06,0005.21,0004.33
2022-10-13 10:34:00,,0830.4,5.00,0.00,26.4,24.6,00.0,35.3,28.1,15.3,0000.0,0014.77,0005.21,0004.34
2022-10-13 10:35:00,,0830.4,5.00,0.00,26.4,24.6,00.0,35.3,28.1,15.3,0000.0,0015.01,0005.20,0004.33
2022-10-13 10:36:00,,0830.5,4.98,0.00,26.4,24.6,00.0,35.2,28.2,15.3,0000.0,0014.52,0005.16,0004.30
2022-10-13 10:37:00,,0830.5,5.00,0.00,26.4,24.6,00.0,35.2,28.2,15.3,0000.0,0014.59,0005.18,0004.28
2022-10-13 10:38:00,,0830.6,5.00,0.00,26.4,24.6,00.0,35.2,28.2,15.3,0000.0,0014.30,0005.16,0004.26
2022-10-13 10:39:00,,0830.6,5.00,0.00,26.3,24.6,00.0,35.2,28.2,15.3,0000.0,0013.26,0005.13,0004.25
2022-10-13 10:40:00,,0830.5,5.01,0.00,26.3,24.6,00.0,35.2,28.1,15.3,0000.0,0013.27,0005.12,0004.23
2022-10-13 10:41:00,,0830.5,5.01,0.00,26.3,24.6,00.0,35.2,28.1,15.3,0000.0,0013.01,0005.09,0004.22
2022-10-13 10:42:00,,0830.5,5.01,0.00,26.3,24.6,00.0,35.2,28.1,15.4,0000.0,0012.86,0005.07,0004.21
2022-10-13 10:43:00,,0830.5,5.00,0.00,26.3,24.6,00.0,35.2,28.1,15.4,0000.0,0012.81,0005.09,0004.21
2022-10-13 10:44:00,,0830.5,4.98,0.00,26.3,24.6,00.0,35.2,28.1,15.4,0000.0,0011.78,0005.08,0004.21
2022-10-13 10:45:00,,0830.5,5.00,0.00,26.3,24.5,00.0,35.2,28.1,15.4,0000.0,0010.29,0005.05,0004.20
2022-10-13 10:46:00,,0830.6,5.00,0.00,26.3,24.5,00.0,35.2,28.1,15.4,0000.0,0009.91,0005.05,0004.19
2022-10-13 10:47:00,,0830.6,5.01,0.00,26.3,24.5,00.0,35.1,28.1,15.5,0000.0,0009.82,0005.05,0004.20
2022-10-13 10:48:00,,0830.6,5.00,0.00,26.3,24.5,00.0,35.1,28.1,15.5,0000.0,0009.91,0005.10,0004.21
2022-10-13 10:49:00,,0830.5,5.00,0.00,26.3,24.5,00.0,35.1,28.1,15.6,0000.0,0010.23,0005.09,0004.22
2022-10-13 10:50:00,,0830.5,5.00,0.00,26.2,24.5,00.0,35.1,28.1,15.6,0000.0,0010.48,0005.04,0004.21
2022-10-13 10:51:00,,0830.5,5.00,0.00,26.2,24.5,00.0,35.1,28.1,15.6,0000.0,0010.53,0005.00,0004.22
2022-10-13 10:52:00,,0830.6,4.99,0.00,26.2,24.6,00.0,35.1,28.1,15.6,0000.0,0010.60,0005.02,0004.23
2022-10-13 10:53:00,,0830.5,4.99,0.00,26.2,24.5,00.0,35.1,28.0,15.6,0000.0,0010.45,0004.99,0004.24
2022-10-13 10:54:00,,0830.6,5.01,0.00,26.2,24.5,00.0,35.1,28.0,15.6,0000.0,0010.37,0004.96,0004.24
2022-10-13 10:55:00,,0830.6,5.00,0.00,26.2,24.5,00.0,35.1,28.1,15.6,0000.0,0010.18,0004.95,0004.25
2022-10-13 10:56:00,,0830.6,5.00,0.00,26.2,24.5,00.0,35.1,28.0,15.7,0000.0,0009.88,0004.97,0004.27
2022-10-13 10:57:00,,0830.6,5.00,0.00,26.2,24.5,00.0,35.1,28.1,15.7,0000.0,0009.94,0005.00,0004.29
2022-10-13 10:58:00,,0830.6,5.00,0.00,26.2,24.5,00.0,35.1,28.1,15.6,0000.0,0010.04,0005.02,0004.29
2022-10-13 10:59:00,,0830.6,5.00,0.00,26.2,24.5,00.0,35.1,28.1,15.7,0000.0,0010.00,0004.98,0004.31
